Year,Month,Day,Hour,Minute,Value (Times are PST for windspeed in km/hr)
2006,05,13,00,00,1.00
2006,05,13,00,01,0.90
2006,05,13,00,02,2.30
2006,05,13,00,03,1.90
2006,05,13,00,04,2.70
2006,05,13,00,05,3.70
2006,05,13,00,06,4.50
2006,05,13,00,07,4.20
2006,05,13,00,08,4.70
2006,05,13,00,09,2.60
2006,05,13,00,10,1.50
2006,05,13,00,11,0.80
2006,05,13,00,12,1.00
2006,05,13,00,13,1.20
2006,05,13,00,14,1.80
2006,05,13,00,15,0.40
2006,05,13,00,16,0.00
2006,05,13,00,17,0.30
2006,05,13,00,18,0.00
2006,05,13,00,19,0.00
2006,05,13,00,20,0.00
2006,05,13,00,21,0.00
2006,05,13,00,22,0.00
2006,05,13,00,23,0.00
2006,05,13,00,24,0.00
2006,05,13,00,25,0.00
2006,05,13,00,26,0.00
2006,05,13,00,27,0.00
2006,05,13,00,28,0.10
2006,05,13,00,29,0.10
2006,05,13,00,30,1.10
2006,05,13,00,31,1.10
2006,05,13,00,32,0.00
2006,05,13,00,33,0.00
2006,05,13,00,34,0.00
2006,05,13,00,35,0.00
2006,05,13,00,36,0.00
2006,05,13,00,37,0.40
2006,05,13,00,38,1.10
2006,05,13,00,39,0.10
2006,05,13,00,40,0.50
2006,05,13,00,41,0.60
2006,05,13,00,42,0.00
2006,05,13,00,43,0.00
2006,05,13,00,44,0.00
2006,05,13,00,45,0.00
2006,05,13,00,46,0.00
2006,05,13,00,47,0.00
2006,05,13,00,48,0.00
2006,05,13,00,49,0.00
2006,05,13,00,50,0.00
2006,05,13,00,51,0.00
2006,05,13,00,52,0.00
2006,05,13,00,53,0.00
2006,05,13,00,54,0.00
2006,05,13,00,55,0.00
2006,05,13,00,56,0.00
2006,05,13,00,57,0.00
2006,05,13,00,58,0.00
2006,05,13,00,59,0.00
2006,05,13,01,00,0.00
2006,05,13,01,01,0.00
2006,05,13,01,02,0.00
2006,05,13,01,03,0.00
2006,05,13,01,04,0.00
2006,05,13,01,05,0.00
2006,05,13,01,06,0.00
2006,05,13,01,07,0.00
2006,05,13,01,08,0.00
2006,05,13,01,09,0.00
2006,05,13,01,10,0.00
2006,05,13,01,11,0.00
2006,05,13,01,12,0.00
2006,05,13,01,13,0.40
2006,05,13,01,14,0.90
2006,05,13,01,15,0.00
2006,05,13,01,16,0.00
2006,05,13,01,17,0.00
2006,05,13,01,18,0.00
2006,05,13,01,19,0.00
2006,05,13,01,20,0.00
2006,05,13,01,21,0.00
2006,05,13,01,22,0.00
2006,05,13,01,23,0.00
2006,05,13,01,24,0.10
2006,05,13,01,25,0.00
2006,05,13,01,26,0.30
2006,05,13,01,27,0.10
2006,05,13,01,28,0.50
2006,05,13,01,29,0.30
2006,05,13,01,30,0.30
2006,05,13,01,31,0.30
2006,05,13,01,32,0.00
2006,05,13,01,33,0.00
2006,05,13,01,34,0.00
2006,05,13,01,35,0.00
2006,05,13,01,36,0.00
2006,05,13,01,37,0.00
2006,05,13,01,38,0.00
2006,05,13,01,39,0.00
2006,05,13,01,40,0.00
2006,05,13,01,41,0.00
2006,05,13,01,42,0.00
2006,05,13,01,43,0.00
2006,05,13,01,44,0.00
2006,05,13,01,45,0.00
2006,05,13,01,46,0.00
2006,05,13,01,47,0.00
2006,05,13,01,48,0.00
2006,05,13,01,49,0.00
2006,05,13,01,50,0.00
2006,05,13,01,51,0.00
2006,05,13,01,52,0.00
2006,05,13,01,53,0.10
2006,05,13,01,54,0.00
2006,05,13,01,55,1.80
2006,05,13,01,56,0.00
2006,05,13,01,57,0.00
2006,05,13,01,58,0.00
2006,05,13,01,59,1.30
2006,05,13,02,00,0.00
2006,05,13,02,01,0.00
2006,05,13,02,02,0.10
2006,05,13,02,03,0.00
2006,05,13,02,04,0.00
2006,05,13,02,05,0.00
2006,05,13,02,06,0.20
2006,05,13,02,07,0.00
2006,05,13,02,08,0.60
2006,05,13,02,09,1.90
2006,05,13,02,10,0.30
2006,05,13,02,11,0.10
2006,05,13,02,12,2.70
2006,05,13,02,13,1.20
2006,05,13,02,14,0.50
2006,05,13,02,15,0.30
2006,05,13,02,16,1.00
2006,05,13,02,17,0.10
2006,05,13,02,18,0.10
2006,05,13,02,19,0.40
2006,05,13,02,20,0.00
2006,05,13,02,21,0.00
2006,05,13,02,22,0.00
2006,05,13,02,23,0.90
2006,05,13,02,24,0.10
2006,05,13,02,25,0.00
2006,05,13,02,26,1.10
2006,05,13,02,27,1.60
2006,05,13,02,28,1.10
2006,05,13,02,29,1.10
2006,05,13,02,30,0.10
2006,05,13,02,31,0.00
2006,05,13,02,32,0.00
2006,05,13,02,33,0.00
2006,05,13,02,34,0.00
2006,05,13,02,35,0.00
2006,05,13,02,36,0.00
2006,05,13,02,37,0.00
2006,05,13,02,38,0.10
2006,05,13,02,39,0.10
2006,05,13,02,40,0.00
2006,05,13,02,41,0.00
2006,05,13,02,42,0.00
2006,05,13,02,43,0.00
2006,05,13,02,44,0.00
2006,05,13,02,45,0.00
2006,05,13,02,46,0.00
2006,05,13,02,47,0.00
2006,05,13,02,48,0.90
2006,05,13,02,49,1.90
2006,05,13,02,50,1.40
2006,05,13,02,51,1.20
2006,05,13,02,52,0.00
2006,05,13,02,53,0.10
2006,05,13,02,54,0.00
2006,05,13,02,55,0.00
2006,05,13,02,56,0.00
2006,05,13,02,57,0.00
2006,05,13,02,58,0.00
2006,05,13,02,59,0.00
2006,05,13,03,00,0.00
2006,05,13,03,01,0.10
2006,05,13,03,02,0.00
2006,05,13,03,03,0.00
2006,05,13,03,04,0.00
2006,05,13,03,05,0.00
2006,05,13,03,06,0.00
2006,05,13,03,07,0.00
2006,05,13,03,08,0.00
2006,05,13,03,09,0.00
2006,05,13,03,10,0.00
2006,05,13,03,11,0.00
2006,05,13,03,12,0.00
2006,05,13,03,13,0.00
2006,05,13,03,14,0.00
2006,05,13,03,15,0.00
2006,05,13,03,16,0.00
2006,05,13,03,17,0.00
2006,05,13,03,18,0.00
2006,05,13,03,19,0.00
2006,05,13,03,20,0.00
2006,05,13,03,21,0.00
2006,05,13,03,22,0.00
2006,05,13,03,23,0.00
2006,05,13,03,24,0.00
2006,05,13,03,25,0.00
2006,05,13,03,26,0.00
2006,05,13,03,27,0.00
2006,05,13,03,28,0.00
2006,05,13,03,29,0.00
2006,05,13,03,30,0.00
2006,05,13,03,31,0.00
2006,05,13,03,32,0.00
2006,05,13,03,33,0.00
2006,05,13,03,34,0.00
2006,05,13,03,35,0.00
2006,05,13,03,36,0.00
2006,05,13,03,37,0.00
2006,05,13,03,38,0.00
2006,05,13,03,39,0.00
2006,05,13,03,40,0.00
2006,05,13,03,41,0.00
2006,05,13,03,42,0.00
2006,05,13,03,43,0.00
2006,05,13,03,44,0.00
2006,05,13,03,45,0.00
2006,05,13,03,46,0.00
2006,05,13,03,47,0.00
2006,05,13,03,48,0.00
2006,05,13,03,49,0.00
2006,05,13,03,50,0.00
2006,05,13,03,51,0.00
2006,05,13,03,52,0.00
2006,05,13,03,53,0.00
2006,05,13,03,54,0.00
2006,05,13,03,55,0.00
2006,05,13,03,56,0.00
2006,05,13,03,57,0.10
2006,05,13,03,58,0.00
2006,05,13,03,59,0.00
2006,05,13,04,00,0.00
2006,05,13,04,01,0.00
2006,05,13,04,02,0.00
2006,05,13,04,03,0.00
2006,05,13,04,04,0.00
2006,05,13,04,05,0.00
2006,05,13,04,06,0.00
2006,05,13,04,07,0.00
2006,05,13,04,08,0.00
2006,05,13,04,09,0.00
2006,05,13,04,10,0.00
2006,05,13,04,11,0.00
2006,05,13,04,12,0.00
2006,05,13,04,13,0.00
2006,05,13,04,14,0.00
2006,05,13,04,15,0.00
2006,05,13,04,16,0.00
2006,05,13,04,17,0.00
2006,05,13,04,18,0.00
2006,05,13,04,19,0.00
2006,05,13,04,20,0.00
2006,05,13,04,21,0.00
2006,05,13,04,22,0.00
2006,05,13,04,23,0.00
2006,05,13,04,24,0.00
2006,05,13,04,25,0.00
2006,05,13,04,26,0.00
2006,05,13,04,27,0.00
2006,05,13,04,28,0.00
2006,05,13,04,29,0.00
2006,05,13,04,30,0.00
2006,05,13,04,31,0.00
2006,05,13,04,32,0.00
2006,05,13,04,33,0.00
2006,05,13,04,34,0.00
2006,05,13,04,35,0.00
2006,05,13,04,36,0.00
2006,05,13,04,37,0.00
2006,05,13,04,38,0.00
2006,05,13,04,39,0.00
2006,05,13,04,40,0.00
2006,05,13,04,41,0.00
2006,05,13,04,42,0.00
2006,05,13,04,43,0.10
2006,05,13,04,44,0.00
2006,05,13,04,45,0.00
2006,05,13,04,46,0.00
2006,05,13,04,47,0.00
2006,05,13,04,48,0.00
2006,05,13,04,49,0.00
2006,05,13,04,50,0.00
2006,05,13,04,51,0.00
2006,05,13,04,52,0.00
2006,05,13,04,53,0.00
2006,05,13,04,54,0.00
2006,05,13,04,55,0.00
2006,05,13,04,56,0.00
2006,05,13,04,57,0.00
2006,05,13,04,58,0.00
2006,05,13,04,59,0.00
2006,05,13,05,00,0.00
2006,05,13,05,01,0.00
2006,05,13,05,02,0.00
2006,05,13,05,03,0.00
2006,05,13,05,04,0.00
2006,05,13,05,05,0.00
2006,05,13,05,06,0.00
2006,05,13,05,07,0.30
2006,05,13,05,08,1.10
2006,05,13,05,09,1.90
2006,05,13,05,10,0.20
2006,05,13,05,11,2.60
2006,05,13,05,12,1.90
2006,05,13,05,13,2.30
2006,05,13,05,14,2.40
2006,05,13,05,15,0.00
2006,05,13,05,16,0.80
2006,05,13,05,17,2.00
2006,05,13,05,18,0.60
2006,05,13,05,19,0.60
2006,05,13,05,20,0.20
2006,05,13,05,21,0.00
2006,05,13,05,22,0.00
2006,05,13,05,23,0.00
2006,05,13,05,24,0.00
2006,05,13,05,25,0.00
2006,05,13,05,26,0.00
2006,05,13,05,27,0.00
2006,05,13,05,28,0.00
2006,05,13,05,29,0.00
2006,05,13,05,30,0.00
2006,05,13,05,31,0.00
2006,05,13,05,32,0.00
2006,05,13,05,33,0.00
2006,05,13,05,34,0.00
2006,05,13,05,35,0.00
2006,05,13,05,36,0.00
2006,05,13,05,37,0.00
2006,05,13,05,38,0.00
2006,05,13,05,39,0.00
2006,05,13,05,40,0.00
2006,05,13,05,41,0.00
2006,05,13,05,42,0.00
2006,05,13,05,43,0.00
2006,05,13,05,44,0.00
2006,05,13,05,45,0.00
2006,05,13,05,46,0.00
2006,05,13,05,47,0.00
2006,05,13,05,48,0.00
2006,05,13,05,49,0.00
2006,05,13,05,50,0.00
2006,05,13,05,51,0.00
2006,05,13,05,52,0.00
2006,05,13,05,53,0.10
2006,05,13,05,54,0.00
2006,05,13,05,55,0.00
2006,05,13,05,56,0.10
2006,05,13,05,57,0.00
2006,05,13,05,58,0.00
2006,05,13,05,59,0.00
2006,05,13,06,00,0.00
2006,05,13,06,01,0.00
2006,05,13,06,02,0.00
2006,05,13,06,03,0.00
2006,05,13,06,04,0.00
2006,05,13,06,05,0.00
2006,05,13,06,06,0.00
2006,05,13,06,07,0.00
2006,05,13,06,08,0.00
2006,05,13,06,09,0.00
2006,05,13,06,10,0.00
2006,05,13,06,11,0.00
2006,05,13,06,12,0.00
2006,05,13,06,13,3.00
2006,05,13,06,14,2.10
2006,05,13,06,15,0.80
2006,05,13,06,16,0.00
2006,05,13,06,17,0.60
2006,05,13,06,18,0.00
2006,05,13,06,19,0.30
2006,05,13,06,20,0.00
2006,05,13,06,21,0.10
2006,05,13,06,22,0.30
2006,05,13,06,23,0.00
2006,05,13,06,24,0.10
2006,05,13,06,25,3.80
2006,05,13,06,26,1.10
2006,05,13,06,27,0.50
2006,05,13,06,28,0.10
2006,05,13,06,29,3.80
2006,05,13,06,30,5.30
2006,05,13,06,31,6.20
2006,05,13,06,32,3.90
2006,05,13,06,33,5.60
2006,05,13,06,34,4.90
2006,05,13,06,35,5.00
2006,05,13,06,36,6.00
2006,05,13,06,37,6.00
2006,05,13,06,38,5.20
2006,05,13,06,39,7.60
2006,05,13,06,40,4.90
2006,05,13,06,41,6.50
2006,05,13,06,42,6.40
2006,05,13,06,43,6.20
2006,05,13,06,44,6.80
2006,05,13,06,45,6.40
2006,05,13,06,46,6.40
2006,05,13,06,47,8.00
2006,05,13,06,48,9.30
2006,05,13,06,49,7.20
2006,05,13,06,50,4.30
2006,05,13,06,51,7.00
2006,05,13,06,52,8.10
2006,05,13,06,53,5.40
2006,05,13,06,54,7.70
2006,05,13,06,55,8.40
2006,05,13,06,56,7.60
2006,05,13,06,57,6.70
2006,05,13,06,58,7.70
2006,05,13,06,59,6.90
2006,05,13,07,00,5.50
2006,05,13,07,01,7.10
2006,05,13,07,02,5.00
2006,05,13,07,03,7.50
2006,05,13,07,04,8.40
2006,05,13,07,05,8.50
2006,05,13,07,06,6.40
2006,05,13,07,07,6.00
2006,05,13,07,08,8.50
2006,05,13,07,09,11.10
2006,05,13,07,10,10.10
2006,05,13,07,11,11.40
2006,05,13,07,12,8.30
2006,05,13,07,13,12.30
2006,05,13,07,14,10.90
2006,05,13,07,15,12.70
2006,05,13,07,16,13.80
2006,05,13,07,17,10.80
2006,05,13,07,18,10.90
2006,05,13,07,19,7.70
2006,05,13,07,20,10.20
2006,05,13,07,21,8.60
2006,05,13,07,22,4.70
2006,05,13,07,23,5.30
2006,05,13,07,24,5.80
2006,05,13,07,25,8.40
2006,05,13,07,26,7.60
2006,05,13,07,27,5.40
2006,05,13,07,28,6.90
2006,05,13,07,29,6.30
2006,05,13,07,30,6.70
2006,05,13,07,31,5.70
2006,05,13,07,32,8.20
2006,05,13,07,33,10.50
2006,05,13,07,34,7.90
2006,05,13,07,35,11.70
2006,05,13,07,36,8.50
2006,05,13,07,37,11.30
2006,05,13,07,38,9.20
2006,05,13,07,39,8.80
2006,05,13,07,40,7.60
2006,05,13,07,41,8.90
2006,05,13,07,42,5.70
2006,05,13,07,43,8.00
2006,05,13,07,44,6.90
2006,05,13,07,45,11.30
2006,05,13,07,46,7.40
2006,05,13,07,47,6.50
2006,05,13,07,48,8.10
2006,05,13,07,49,12.20
2006,05,13,07,50,10.10
2006,05,13,07,51,11.10
2006,05,13,07,52,11.60
2006,05,13,07,53,8.00
2006,05,13,07,54,7.40
2006,05,13,07,55,10.60
2006,05,13,07,56,6.90
2006,05,13,07,57,7.20
2006,05,13,07,58,7.70
2006,05,13,07,59,10.10
2006,05,13,08,00,10.10
2006,05,13,08,01,9.70
2006,05,13,08,02,10.10
2006,05,13,08,03,9.10
2006,05,13,08,04,10.50
2006,05,13,08,05,13.60
2006,05,13,08,06,11.10
2006,05,13,08,07,10.40
2006,05,13,08,08,7.60
2006,05,13,08,09,15.80
2006,05,13,08,10,15.00
2006,05,13,08,11,10.60
2006,05,13,08,12,7.60
2006,05,13,08,13,8.10
2006,05,13,08,14,8.60
2006,05,13,08,15,6.40
2006,05,13,08,16,9.10
2006,05,13,08,17,9.50
2006,05,13,08,18,18.00
2006,05,13,08,19,14.40
2006,05,13,08,20,13.00
2006,05,13,08,21,12.30
2006,05,13,08,22,13.80
2006,05,13,08,23,13.60
2006,05,13,08,24,10.30
2006,05,13,08,25,10.70
2006,05,13,08,26,8.50
2006,05,13,08,27,9.70
2006,05,13,08,28,9.70
2006,05,13,08,29,11.30
2006,05,13,08,30,10.90
2006,05,13,08,31,11.50
2006,05,13,08,32,15.70
2006,05,13,08,33,8.90
2006,05,13,08,34,13.00
2006,05,13,08,35,8.70
2006,05,13,08,36,7.10
2006,05,13,08,37,8.10
2006,05,13,08,38,9.40
2006,05,13,08,39,8.50
2006,05,13,08,40,12.10
2006,05,13,08,41,13.00
2006,05,13,08,42,11.10
2006,05,13,08,43,9.30
2006,05,13,08,44,10.70
2006,05,13,08,45,11.70
2006,05,13,08,46,13.00
2006,05,13,08,47,8.90
2006,05,13,08,48,11.40
2006,05,13,08,49,9.20
2006,05,13,08,50,11.40
2006,05,13,08,51,11.30
2006,05,13,08,52,11.40
2006,05,13,08,53,10.90
2006,05,13,08,54,12.60
2006,05,13,08,55,9.60
2006,05,13,08,56,6.40
2006,05,13,08,57,7.90
2006,05,13,08,58,10.50
2006,05,13,08,59,7.40
2006,05,13,09,00,6.70
2006,05,13,09,01,4.70
2006,05,13,09,02,9.20
2006,05,13,09,03,10.80
2006,05,13,09,04,9.30
2006,05,13,09,05,6.40
2006,05,13,09,06,5.10
2006,05,13,09,07,3.10
2006,05,13,09,08,2.90
2006,05,13,09,09,6.90
2006,05,13,09,10,8.70
2006,05,13,09,11,4.40
2006,05,13,09,12,1.10
2006,05,13,09,13,7.30
2006,05,13,09,14,2.50
2006,05,13,09,15,5.10
2006,05,13,09,16,8.20
2006,05,13,09,17,9.60
2006,05,13,09,18,3.60
2006,05,13,09,19,4.30
2006,05,13,09,20,5.80
2006,05,13,09,21,7.60
2006,05,13,09,22,3.20
2006,05,13,09,23,7.50
2006,05,13,09,24,7.40
2006,05,13,09,25,5.60
2006,05,13,09,26,3.40
2006,05,13,09,27,8.60
2006,05,13,09,28,7.50
2006,05,13,09,29,7.90
2006,05,13,09,30,8.70
2006,05,13,09,31,4.60
2006,05,13,09,32,6.00
2006,05,13,09,33,8.70
2006,05,13,09,34,10.60
2006,05,13,09,35,8.70
2006,05,13,09,36,5.40
2006,05,13,09,37,4.90
2006,05,13,09,38,4.70
2006,05,13,09,39,6.40
2006,05,13,09,40,5.10
2006,05,13,09,41,6.30
2006,05,13,09,42,6.70
2006,05,13,09,43,7.50
2006,05,13,09,44,5.80
2006,05,13,09,45,3.10
2006,05,13,09,46,10.10
2006,05,13,09,47,6.80
2006,05,13,09,48,3.70
2006,05,13,09,49,3.70
2006,05,13,09,50,5.40
2006,05,13,09,51,4.30
2006,05,13,09,52,6.10
2006,05,13,09,53,4.10
2006,05,13,09,54,8.20
2006,05,13,09,55,7.60
2006,05,13,09,56,4.80
2006,05,13,09,57,7.80
2006,05,13,09,58,2.80
2006,05,13,09,59,6.20
2006,05,13,10,00,7.50
2006,05,13,10,01,8.50
2006,05,13,10,02,4.60
2006,05,13,10,03,0.30
2006,05,13,10,04,0.60
2006,05,13,10,05,6.40
2006,05,13,10,06,6.90
2006,05,13,10,07,6.40
2006,05,13,10,08,4.60
2006,05,13,10,09,0.90
2006,05,13,10,10,4.30
2006,05,13,10,11,5.30
2006,05,13,10,12,4.50
2006,05,13,10,13,5.80
2006,05,13,10,14,7.50
2006,05,13,10,15,7.10
2006,05,13,10,16,7.20
2006,05,13,10,17,4.80
2006,05,13,10,18,4.70
2006,05,13,10,19,6.20
2006,05,13,10,20,3.90
2006,05,13,10,21,6.80
2006,05,13,10,22,9.70
2006,05,13,10,23,8.00
2006,05,13,10,24,8.10
2006,05,13,10,25,7.40
2006,05,13,10,26,1.80
2006,05,13,10,27,1.90
2006,05,13,10,28,5.70
2006,05,13,10,29,8.40
2006,05,13,10,30,6.40
2006,05,13,10,31,1.00
2006,05,13,10,32,3.00
2006,05,13,10,33,0.70
2006,05,13,10,34,5.20
2006,05,13,10,35,2.10
2006,05,13,10,36,5.00
2006,05,13,10,37,10.70
2006,05,13,10,38,11.00
2006,05,13,10,39,10.50
2006,05,13,10,40,8.10
2006,05,13,10,41,6.10
2006,05,13,10,42,8.90
2006,05,13,10,43,9.70
2006,05,13,10,44,8.50
2006,05,13,10,45,5.20
2006,05,13,10,46,6.50
2006,05,13,10,47,6.40
2006,05,13,10,48,6.90
2006,05,13,10,49,9.10
2006,05,13,10,50,7.40
2006,05,13,10,51,6.50
2006,05,13,10,52,4.50
2006,05,13,10,53,3.00
2006,05,13,10,54,6.50
2006,05,13,10,55,3.00
2006,05,13,10,56,1.90
2006,05,13,10,57,0.00
2006,05,13,10,58,0.60
2006,05,13,10,59,3.70
2006,05,13,11,00,3.70
2006,05,13,11,01,2.80
2006,05,13,11,02,1.30
2006,05,13,11,03,2.10
2006,05,13,11,04,6.90
2006,05,13,11,05,9.70
2006,05,13,11,06,10.30
2006,05,13,11,07,8.50
2006,05,13,11,08,5.80
2006,05,13,11,09,5.30
2006,05,13,11,10,6.10
2006,05,13,11,11,4.90
2006,05,13,11,12,3.60
2006,05,13,11,13,0.70
2006,05,13,11,14,0.90
2006,05,13,11,15,3.50
2006,05,13,11,16,4.30
2006,05,13,11,17,5.70
2006,05,13,11,18,5.20
2006,05,13,11,19,2.00
2006,05,13,11,20,1.60
2006,05,13,11,21,1.40
2006,05,13,11,22,1.40
2006,05,13,11,23,2.00
2006,05,13,11,24,0.90
2006,05,13,11,25,6.50
2006,05,13,11,26,6.80
2006,05,13,11,27,2.90
2006,05,13,11,28,3.40
2006,05,13,11,29,3.00
2006,05,13,11,30,3.80
2006,05,13,11,31,3.00
2006,05,13,11,32,3.20
2006,05,13,11,33,4.40
2006,05,13,11,34,3.80
2006,05,13,11,35,6.40
2006,05,13,11,36,9.70
2006,05,13,11,37,9.00
2006,05,13,11,38,11.30
2006,05,13,11,39,6.40
2006,05,13,11,40,1.60
2006,05,13,11,41,1.60
2006,05,13,11,42,1.90
2006,05,13,11,43,1.00
2006,05,13,11,44,2.50
2006,05,13,11,45,4.90
2006,05,13,11,46,1.90
2006,05,13,11,47,0.20
2006,05,13,11,48,0.90
2006,05,13,11,49,0.30
2006,05,13,11,50,1.70
2006,05,13,11,51,7.40
2006,05,13,11,52,4.00
2006,05,13,11,53,7.20
2006,05,13,11,54,10.50
2006,05,13,11,55,10.50
2006,05,13,11,56,9.60
2006,05,13,11,57,8.50
2006,05,13,11,58,5.40
2006,05,13,11,59,4.60
2006,05,13,12,00,5.40
2006,05,13,12,01,7.50
2006,05,13,12,02,8.10
2006,05,13,12,03,4.30
2006,05,13,12,04,2.20
2006,05,13,12,05,2.40
2006,05,13,12,06,1.40
2006,05,13,12,07,1.60
2006,05,13,12,08,4.70
2006,05,13,12,09,4.80
2006,05,13,12,10,3.60
2006,05,13,12,11,3.60
2006,05,13,12,12,5.60
2006,05,13,12,13,3.30
2006,05,13,12,14,2.10
2006,05,13,12,15,3.40
2006,05,13,12,16,3.90
2006,05,13,12,17,5.70
2006,05,13,12,18,7.10
2006,05,13,12,19,5.30
2006,05,13,12,20,3.70
2006,05,13,12,21,0.40
2006,05,13,12,22,0.10
2006,05,13,12,23,1.90
2006,05,13,12,24,3.10
2006,05,13,12,25,1.30
2006,05,13,12,26,1.60
2006,05,13,12,27,3.00
2006,05,13,12,28,2.00
2006,05,13,12,29,4.10
2006,05,13,12,30,7.20
2006,05,13,12,31,4.90
2006,05,13,12,32,5.90
2006,05,13,12,33,5.80
2006,05,13,12,34,4.80
2006,05,13,12,35,4.20
2006,05,13,12,36,5.80
2006,05,13,12,37,2.80
2006,05,13,12,38,3.90
2006,05,13,12,39,6.90
2006,05,13,12,40,5.30
2006,05,13,12,41,4.30
2006,05,13,12,42,5.60
2006,05,13,12,43,6.20
2006,05,13,12,44,5.50
2006,05,13,12,45,2.70
2006,05,13,12,46,2.70
2006,05,13,12,47,7.40
2006,05,13,12,48,6.80
2006,05,13,12,49,6.90
2006,05,13,12,50,10.30
2006,05,13,12,51,11.10
2006,05,13,12,52,11.00
2006,05,13,12,53,10.00
2006,05,13,12,54,9.60
2006,05,13,12,55,5.80
2006,05,13,12,56,10.10
2006,05,13,12,57,8.80
2006,05,13,12,58,6.50
2006,05,13,12,59,2.80
2006,05,13,13,00,3.20
2006,05,13,13,01,12.20
2006,05,13,13,02,8.10
2006,05,13,13,03,4.90
2006,05,13,13,04,11.90
2006,05,13,13,05,12.20
2006,05,13,13,06,6.40
2006,05,13,13,07,4.20
2006,05,13,13,08,7.20
2006,05,13,13,09,5.00
2006,05,13,13,10,9.10
2006,05,13,13,11,3.60
2006,05,13,13,12,8.90
2006,05,13,13,13,6.90
2006,05,13,13,14,12.90
2006,05,13,13,15,10.50
2006,05,13,13,16,12.00
2006,05,13,13,17,6.50
2006,05,13,13,18,8.60
2006,05,13,13,19,7.20
2006,05,13,13,20,4.70
2006,05,13,13,21,5.20
2006,05,13,13,22,9.50
2006,05,13,13,23,13.10
2006,05,13,13,24,12.60
2006,05,13,13,25,9.30
2006,05,13,13,26,7.00
2006,05,13,13,27,6.40
2006,05,13,13,28,9.10
2006,05,13,13,29,7.60
2006,05,13,13,30,6.90
2006,05,13,13,31,9.50
2006,05,13,13,32,9.20
2006,05,13,13,33,4.40
2006,05,13,13,34,9.70
2006,05,13,13,35,13.80
2006,05,13,13,36,10.70
2006,05,13,13,37,8.60
2006,05,13,13,38,17.30
2006,05,13,13,39,12.30
2006,05,13,13,40,12.40
2006,05,13,13,41,14.20
2006,05,13,13,42,15.70
2006,05,13,13,43,11.60
2006,05,13,13,44,9.00
2006,05,13,13,45,13.80
2006,05,13,13,46,15.40
2006,05,13,13,47,10.80
2006,05,13,13,48,8.50
2006,05,13,13,49,9.20
2006,05,13,13,50,15.60
2006,05,13,13,51,11.10
2006,05,13,13,52,7.50
2006,05,13,13,53,11.50
2006,05,13,13,54,17.40
2006,05,13,13,55,11.50
2006,05,13,13,56,12.50
2006,05,13,13,57,15.20
2006,05,13,13,58,11.40
2006,05,13,13,59,8.40
2006,05,13,14,00,15.00
2006,05,13,14,01,14.90
2006,05,13,14,02,17.10
2006,05,13,14,03,11.50
2006,05,13,14,04,12.40
2006,05,13,14,05,12.70
2006,05,13,14,06,14.80
2006,05,13,14,07,8.30
2006,05,13,14,08,15.90
2006,05,13,14,09,17.30
2006,05,13,14,10,12.10
2006,05,13,14,11,7.60
2006,05,13,14,12,7.30
2006,05,13,14,13,8.20
2006,05,13,14,14,6.20
2006,05,13,14,15,9.20
2006,05,13,14,16,10.10
2006,05,13,14,17,12.70
2006,05,13,14,18,8.90
2006,05,13,14,19,9.80
2006,05,13,14,20,5.50
2006,05,13,14,21,10.90
2006,05,13,14,22,14.60
2006,05,13,14,23,12.20
2006,05,13,14,24,9.20
2006,05,13,14,25,7.50
2006,05,13,14,26,12.80
2006,05,13,14,27,11.00
2006,05,13,14,28,11.50
2006,05,13,14,29,8.10
2006,05,13,14,30,4.20
2006,05,13,14,31,9.30
2006,05,13,14,32,8.90
2006,05,13,14,33,10.90
2006,05,13,14,34,4.80
2006,05,13,14,35,11.90
2006,05,13,14,36,8.40
2006,05,13,14,37,8.10
2006,05,13,14,38,10.10
2006,05,13,14,39,10.30
2006,05,13,14,40,7.40
2006,05,13,14,41,9.40
2006,05,13,14,42,9.90
2006,05,13,14,43,11.30
2006,05,13,14,44,11.30
2006,05,13,14,45,10.80
2006,05,13,14,46,12.40
2006,05,13,14,47,9.20
2006,05,13,14,48,9.60
2006,05,13,14,49,9.40
2006,05,13,14,50,9.30
2006,05,13,14,51,11.90
2006,05,13,14,52,13.90
2006,05,13,14,53,10.80
2006,05,13,14,54,9.00
2006,05,13,14,55,9.60
2006,05,13,14,56,11.40
2006,05,13,14,57,8.00
2006,05,13,14,58,8.00
2006,05,13,14,59,4.70
2006,05,13,15,00,5.30
2006,05,13,15,01,5.60
2006,05,13,15,02,6.40
2006,05,13,15,03,9.30
2006,05,13,15,04,9.80
2006,05,13,15,05,7.50
2006,05,13,15,06,4.80
2006,05,13,15,07,5.40
2006,05,13,15,08,14.90
2006,05,13,15,09,12.10
2006,05,13,15,10,10.90
2006,05,13,15,11,11.90
2006,05,13,15,12,5.60
2006,05,13,15,13,6.10
2006,05,13,15,14,8.00
2006,05,13,15,15,7.80
2006,05,13,15,16,7.30
2006,05,13,15,17,13.90
2006,05,13,15,18,9.00
2006,05,13,15,19,10.50
2006,05,13,15,20,10.20
2006,05,13,15,21,10.30
2006,05,13,15,22,14.60
2006,05,13,15,23,8.20
2006,05,13,15,24,13.40
2006,05,13,15,25,11.30
2006,05,13,15,26,9.60
2006,05,13,15,27,9.90
2006,05,13,15,28,5.80
2006,05,13,15,29,4.80
2006,05,13,15,30,12.10
2006,05,13,15,31,7.50
2006,05,13,15,32,8.50
2006,05,13,15,33,9.40
2006,05,13,15,34,6.50
2006,05,13,15,35,6.00
2006,05,13,15,36,4.10
2006,05,13,15,37,7.50
2006,05,13,15,38,7.20
2006,05,13,15,39,8.10
2006,05,13,15,40,3.30
2006,05,13,15,41,6.70
2006,05,13,15,42,5.80
2006,05,13,15,43,4.40
2006,05,13,15,44,4.20
2006,05,13,15,45,2.00
2006,05,13,15,46,10.80
2006,05,13,15,47,13.30
2006,05,13,15,48,10.10
2006,05,13,15,49,5.80
2006,05,13,15,50,5.10
2006,05,13,15,51,7.90
2006,05,13,15,52,9.50
2006,05,13,15,53,9.00
2006,05,13,15,54,6.80
2006,05,13,15,55,6.40
2006,05,13,15,56,7.20
2006,05,13,15,57,6.40
2006,05,13,15,58,6.80
2006,05,13,15,59,9.30
2006,05,13,16,00,6.00
2006,05,13,16,01,7.60
2006,05,13,16,02,6.80
2006,05,13,16,03,7.90
2006,05,13,16,04,9.50
2006,05,13,16,05,8.10
2006,05,13,16,06,5.80
2006,05,13,16,07,7.10
2006,05,13,16,08,5.80
2006,05,13,16,09,5.10
2006,05,13,16,10,9.60
2006,05,13,16,11,10.60
2006,05,13,16,12,3.80
2006,05,13,16,13,2.80
2006,05,13,16,14,6.70
2006,05,13,16,15,6.40
2006,05,13,16,16,5.50
2006,05,13,16,17,2.90
2006,05,13,16,18,6.30
2006,05,13,16,19,5.00
2006,05,13,16,20,6.90
2006,05,13,16,21,8.80
2006,05,13,16,22,5.20
2006,05,13,16,23,6.00
2006,05,13,16,24,4.30
2006,05,13,16,25,7.30
2006,05,13,16,26,6.60
2006,05,13,16,27,9.40
2006,05,13,16,28,11.30
2006,05,13,16,29,6.70
2006,05,13,16,30,6.80
2006,05,13,16,31,6.00
2006,05,13,16,32,6.40
2006,05,13,16,33,7.00
2006,05,13,16,34,7.70
2006,05,13,16,35,5.30
2006,05,13,16,36,6.00
2006,05,13,16,37,8.80
2006,05,13,16,38,6.80
2006,05,13,16,39,7.40
2006,05,13,16,40,7.00
2006,05,13,16,41,8.60
2006,05,13,16,42,6.70
2006,05,13,16,43,6.20
2006,05,13,16,44,3.50
2006,05,13,16,45,5.70
2006,05,13,16,46,4.70
2006,05,13,16,47,4.60
2006,05,13,16,48,4.70
2006,05,13,16,49,4.20
2006,05,13,16,50,8.00
2006,05,13,16,51,5.00
2006,05,13,16,52,8.60
2006,05,13,16,53,6.50
2006,05,13,16,54,3.70
2006,05,13,16,55,6.80
2006,05,13,16,56,7.30
2006,05,13,16,57,5.50
2006,05,13,16,58,9.80
2006,05,13,16,59,5.40
2006,05,13,17,00,8.20
2006,05,13,17,01,4.70
2006,05,13,17,02,6.20
2006,05,13,17,03,6.50
2006,05,13,17,04,4.70
2006,05,13,17,05,2.40
2006,05,13,17,06,2.20
2006,05,13,17,07,5.30
2006,05,13,17,08,5.70
2006,05,13,17,09,4.80
2006,05,13,17,10,5.40
2006,05,13,17,11,7.20
2006,05,13,17,12,9.60
2006,05,13,17,13,7.20
2006,05,13,17,14,5.70
2006,05,13,17,15,5.90
2006,05,13,17,16,3.60
2006,05,13,17,17,4.80
2006,05,13,17,18,4.80
2006,05,13,17,19,9.40
2006,05,13,17,20,9.60
2006,05,13,17,21,6.40
2006,05,13,17,22,3.60
2006,05,13,17,23,6.20
2006,05,13,17,24,6.40
2006,05,13,17,25,5.20
2006,05,13,17,26,6.60
2006,05,13,17,27,5.90
2006,05,13,17,28,3.50
2006,05,13,17,29,3.50
2006,05,13,17,30,7.10
2006,05,13,17,31,4.90
2006,05,13,17,32,4.40
2006,05,13,17,33,5.10
2006,05,13,17,34,6.60
2006,05,13,17,35,4.70
2006,05,13,17,36,5.30
2006,05,13,17,37,4.00
2006,05,13,17,38,6.70
2006,05,13,17,39,5.30
2006,05,13,17,40,4.90
2006,05,13,17,41,5.00
2006,05,13,17,42,6.80
2006,05,13,17,43,5.40
2006,05,13,17,44,3.80
2006,05,13,17,45,8.80
2006,05,13,17,46,9.00
2006,05,13,17,47,5.70
2006,05,13,17,48,4.90
2006,05,13,17,49,6.80
2006,05,13,17,50,5.50
2006,05,13,17,51,6.90
2006,05,13,17,52,6.00
2006,05,13,17,53,7.30
2006,05,13,17,54,7.10
2006,05,13,17,55,11.30
2006,05,13,17,56,6.50
2006,05,13,17,57,4.30
2006,05,13,17,58,6.20
2006,05,13,17,59,7.90
2006,05,13,18,00,4.80